HAWK-14A

导读

HAWK-14A(NORAD编号68448)是隶属于美国HAWK卫星系列的小型卫星,该系列卫星主要用于商业航天技术测试与近地轨道空间态势感知研究。卫星具备轻量化设计特点,运行在近地轨道区域,主要任务是测试新型空间探测传感器、验证小型卫星平台的组网通信技术,为后续大规模低轨星座部署积累工程经验。作为HAWK系列的最新成员之一,它延续了该系列低成本快速发射的设计理念,支撑美国商业航天领域对小卫星技术的持续探索。

基本信息
目录编号:
68448
目录名称:
HAWK-14A
国际标识:
2026-067AJ
轨道中心:
EARTH
卫星名称:
HAWK-14A
卫星全名:
HAWK-14A
卫星状态:
在轨 (已飞行158 天)
发射日期:
2026-03-30 UTC
国别 :
美国 (US)
星等 :
--
轨道信息
数据来源 国际轨道数据
星历时间: 2026-09-03T18:25:31+0800
1天前
查看轨道信息
半长轴: 6887.688km
偏心率: 0.000424
轨道倾角: 97.469°
近地点辐角 139.424°
升交点赤经 203.984°
平近点角 220.731°
近地点: 506.63km
远地点: 512.472km
周期: 94.813分钟
每日圈数: 15.18772
详细信息
使用方式:
暂无
2D轨道图
3D轨道图
轨道高度分析图
轨道倾角分析图
轨道综合分析图
查看轨道综合分析图